Orbital Elements at Epoch 2459000.5 (2020-May-31.0) TDB
Reference: JPL 28 (heliocentric ecliptic J2000)
Element | Value | Uncertainty (1-sigma) | Units |
e | .1141614017975279 | 4.0458e-08 | |
a | 2.848991853064531 | 1.495e-08 | au |
q | 2.523746949408948 | 1.1421e-07 | au |
i | 3.778310875601862 | 4.228e-06 | deg |
node | 289.2880339591453 | 6.7868e-05 | deg |
peri | 107.75021021127 | 7.1174e-05 | deg |
M | 97.12163917919136 | 2.0377e-05 | deg |
tp | 2458526.641428630156 (2019-Feb-12.14142863) | 9.9499e-05 | TDB |
period | 1756.44776112565 4.81 | 1.3825e-05 3.785e-08 | d yr |
n | .2049591271472189 | 1.6132e-09 | deg/d |
Q | 3.174236756720114 | 1.6656e-08 | au |
|
| | Orbit Determination Parameters
Additional Information
|